Regional Weather Roundup
Issued by NWS Bismarck, ND

Home | Current Version | Previous Version | Text Only | Print | Product List | Glossary On
Versions: 1 2 3 4 5 6 7 8 9 10 11 12 13 14 15 16 17 18 19 20 21 22 23 24 25 26 27 28 29 30 31 32 33 34 35 36 37 38 39 40 41 42 43 44 45 46 47 48 49 50
425
ASUS43 KBIS 241902
RWRBIS

NWR BROADCAST TEXT
NATIONAL WEATHER SERVICE BISMARCK ND
200 PM CDT MON APR 24 2017

NOTE: "FAIR" INDICATES FEW OR NO CLOUDS BELOW 12,000 FEET WITH NO
SIGNIFICANT WEATHER AND/OR OBSTRUCTIONS TO VISIBILITY.


CITY           SKY/WX    TMP DP  RH WIND       PRES   REMARKS
WILLISTON      CLOUDY    36  28  73 NE8       29.71F
MINOT          FLURRIES  34  29  82 N15       29.69F
MINOT AFB      LGT RAIN  33  28  83 N14       29.70F
BISMARCK       CLOUDY    39  33  79 N10       29.64S
DICKINSON      CLOUDY    37  33  85 N9        29.62F
GARRISON         N/A     33  29  85 NE12G20   29.67R
HETTINGER ARPT CLOUDY    44  38  79 N10       29.63R
JAMESTOWN      LGT RAIN  35  35 100 N9        29.59R
HAZEN          CLOUDY    36  32  87 N8G16     29.68S
LINTON           N/A     41  41 100 N17       29.61F
MANDAN         CLOUDY    36  36 100 N15       29.64S
STANLEY        CLOUDY    30  30 100 NE10      29.71F
TIOGA          CLOUDY    30  30 100 E12       29.71F
WATFORD CITY   CLOUDY    34  32  93 NE8       29.68F
$$

CITY           SKY/WX    TMP DP  RH WIND       PRES   REMARKS
GRAND FORKS    RAIN      38  36  92 NE13      29.61F FOG
GRAND FORKS AF RAIN      34  33  99 NE12      29.62F
DEVILS LAKE    FLURRIES  32  29  88 N18       29.66R
FARGO          CLOUDY    51  41  68 N15       29.52F
CAVALIER       MIX PCPN  32  32 100 NE10G18   29.69F VSB 1
GRAFTON        LGT SNOW  32  32 100 NE12      29.67F
GWINNER        PTCLDY    45  41  87 MISG      29.51F
LANGDON        LGT SNOW  32  30  93 NE16G24   29.68S
ROLLA          CLOUDY    28  28 100 NE18      29.71F WCI  16
$$

CITY           SKY/WX    TMP DP  RH WIND       PRES   REMARKS
ABERDEEN       FAIR      50  37  61 NW15      29.53R
MOBRIDGE       CLOUDY    45  34  65 N16       29.56F
BUFFALO          N/A     51  40  65 NW13G22   29.54F
RAPID CITY     FAIR      58  43  57 N25G35    29.58F
GLASGOW        CLOUDY    42  33  70 VRB6      29.69S
SIDNEY         CLOUDY    37  31  78 N9        29.70S
WOLF POINT     CLOUDY    39  32  76 NE10      29.71F
GLENDIVE       CLOUDY    40  35  83 E6        29.67S
MILES CITY     CLOUDY    49  41  74 NE8       29.64S
BAKER          CLOUDY    44  39  82 NW10      29.64F
$$

CITY           SKY/WX    TMP DP  RH WIND       PRES   REMARKS
BILLINGS       PTSUNNY   54  38  54 NE6       29.61F
GREAT FALLS    FAIR      53  28  38 W8        29.60F
$$





USA.gov is the U.S. government's official web portal to all federal, state and local government web resources and services.